TimeEDT,TemperatureF,Dew PointF,Humidity,Sea Level PressureIn,VisibilityMPH,Wind Direction,Wind SpeedMPH,Gust SpeedMPH,PrecipitationIn,Events,Conditions,WindDirDegrees,DateUTC
12:15 AM,65.1,55.2,70,30.01,10.0,ESE,3.5,-,N/A,,Clear,110,2012-09-03 04:15:00
12:35 AM,64.6,55.9,74,30.01,10.0,Calm,Calm,-,N/A,,Clear,0,2012-09-03 04:35:00
12:54 AM,64.4,56.3,75,30.01,10.0,Calm,Calm,-,N/A,,Clear,0,2012-09-03 04:54:00
1:15 AM,63.5,55.9,76,30.01,10.0,Calm,Calm,-,N/A,,Clear,0,2012-09-03 05:15:00
1:35 AM,62.6,56.1,79,30.01,10.0,Calm,Calm,-,N/A,,Clear,0,2012-09-03 05:35:00
1:54 AM,61.2,57.2,87,30.01,10.0,Calm,Calm,-,N/A,,Clear,0,2012-09-03 05:54:00
2:15 AM,61.2,57.6,88,30.01,10.0,Calm,Calm,-,N/A,,Clear,0,2012-09-03 06:15:00
2:35 AM,59.2,56.3,90,30.01,10.0,Calm,Calm,-,N/A,,Clear,0,2012-09-03 06:35:00
2:54 AM,58.5,55.6,90,30.01,10.0,Calm,Calm,-,N/A,,Clear,0,2012-09-03 06:54:00
3:15 AM,58.3,55.6,91,30.01,10.0,SSW,3.5,-,N/A,,Clear,200,2012-09-03 07:15:00
3:34 AM,57.6,54.9,91,30.00,10.0,Calm,Calm,-,N/A,,Clear,0,2012-09-03 07:34:00
3:55 AM,57.7,55.6,92,30.00,10.0,Calm,Calm,-,N/A,,Clear,0,2012-09-03 07:55:00
4:15 AM,57.4,54.9,91,30.00,10.0,Calm,Calm,-,N/A,,Clear,0,2012-09-03 08:15:00
4:34 AM,56.7,54.5,92,29.99,10.0,Calm,Calm,-,N/A,,Clear,0,2012-09-03 08:34:00
4:55 AM,56.8,54.9,93,29.99,10.0,Calm,Calm,-,N/A,,Clear,0,2012-09-03 08:55:00
5:15 AM,56.3,54.1,92,30.00,10.0,WNW,10.4,-,N/A,,Clear,290,2012-09-03 09:15:00
5:34 AM,56.7,54.7,93,30.00,10.0,Calm,Calm,-,N/A,,Clear,0,2012-09-03 09:34:00
5:55 AM,56.8,55.0,94,29.99,10.0,Calm,Calm,-,N/A,,Clear,0,2012-09-03 09:55:00
6:15 AM,55.6,53.6,93,29.99,10.0,West,4.6,-,N/A,,Clear,280,2012-09-03 10:15:00
6:34 AM,55.4,53.2,92,30.00,10.0,Calm,Calm,-,N/A,,Clear,0,2012-09-03 10:34:00
6:55 AM,54.3,52.3,93,29.99,10.0,South,3.5,-,N/A,,Clear,170,2012-09-03 10:55:00
7:15 AM,55.2,53.4,94,29.99,10.0,WNW,9.2,-,N/A,,Clear,290,2012-09-03 11:15:00
7:34 AM,55.4,53.6,94,29.99,10.0,Calm,Calm,-,N/A,,Clear,0,2012-09-03 11:34:00
7:55 AM,56.7,54.9,94,30.00,10.0,NNE,8.1,-,N/A,,Clear,20,2012-09-03 11:55:00
8:12 AM,58.1,56.3,94,30.00,10.0,Calm,Calm,-,N/A,,Clear,0,2012-09-03 12:12:00
8:35 AM,60.1,57.2,90,29.99,10.0,Calm,Calm,-,N/A,,Clear,0,2012-09-03 12:35:00
8:55 AM,62.4,57.7,85,29.99,10.0,Calm,Calm,-,N/A,,Clear,0,2012-09-03 12:55:00
9:14 AM,64.4,58.5,81,29.99,10.0,Calm,Calm,-,N/A,,Clear,0,2012-09-03 13:14:00
9:35 AM,66.6,59.4,78,29.99,10.0,Calm,Calm,-,N/A,,Clear,0,2012-09-03 13:35:00
9:55 AM,68.9,58.1,68,29.99,10.0,Calm,Calm,-,N/A,,Clear,0,2012-09-03 13:55:00
10:14 AM,70.9,58.5,65,29.99,10.0,Calm,Calm,-,N/A,,Clear,0,2012-09-03 14:14:00
10:35 AM,73.0,58.8,61,29.99,10.0,Calm,Calm,-,N/A,,Clear,0,2012-09-03 14:35:00
10:55 AM,75.6,58.8,56,29.99,10.0,SSE,4.6,-,N/A,,Clear,160,2012-09-03 14:55:00
11:14 AM,77.2,59.2,54,29.99,10.0,ESE,3.5,-,N/A,,Clear,120,2012-09-03 15:14:00
11:35 AM,78.6,58.8,50,30.00,10.0,Calm,Calm,-,N/A,,Clear,0,2012-09-03 15:35:00
11:53 AM,79.9,59.4,49,29.99,10.0,ESE,3.5,-,N/A,,Clear,120,2012-09-03 15:53:00
12:14 PM,82.0,59.9,47,29.98,10.0,SSW,4.6,-,N/A,,Clear,210,2012-09-03 16:14:00
12:35 PM,82.9,60.3,46,29.98,10.0,South,5.8,-,N/A,,Clear,190,2012-09-03 16:35:00
12:55 PM,83.8,60.6,45,29.98,10.0,South,6.9,-,N/A,,Clear,190,2012-09-03 16:55:00
1:15 PM,84.6,60.6,44,29.97,10.0,SSW,5.8,-,N/A,,Scattered Clouds,210,2012-09-03 17:15:00
1:35 PM,84.9,60.1,43,29.97,10.0,SSW,3.5,-,N/A,,Scattered Clouds,210,2012-09-03 17:35:00
1:54 PM,85.8,58.8,40,29.97,10.0,SE,4.6,-,N/A,,Mostly Cloudy,130,2012-09-03 17:54:00
2:14 PM,86.4,56.8,36,29.96,10.0,SE,8.1,-,N/A,,Scattered Clouds,130,2012-09-03 18:14:00
2:33 PM,86.7,57.2,37,29.96,10.0,South,8.1,-,N/A,,Clear,180,2012-09-03 18:33:00
2:48 PM,86.2,56.5,36,29.95,10.0,East,3.5,-,N/A,,Clear,100,2012-09-03 18:48:00
3:14 PM,87.3,58.1,37,29.94,10.0,Calm,Calm,-,N/A,,Clear,0,2012-09-03 19:14:00
3:35 PM,86.4,57.2,37,29.93,10.0,SSE,5.8,-,N/A,,Clear,160,2012-09-03 19:35:00
3:55 PM,87.4,57.0,35,29.92,10.0,SSW,4.6,-,N/A,,Clear,210,2012-09-03 19:55:00
4:15 PM,87.6,57.0,35,29.91,10.0,East,4.6,-,N/A,,Clear,100,2012-09-03 20:15:00
4:34 PM,87.4,57.9,37,29.90,10.0,South,8.1,-,N/A,,Clear,190,2012-09-03 20:34:00
4:55 PM,87.8,57.7,36,29.90,10.0,South,6.9,-,N/A,,Clear,190,2012-09-03 20:55:00
5:14 PM,87.3,58.5,38,29.90,10.0,Calm,Calm,-,N/A,,Clear,0,2012-09-03 21:14:00
5:35 PM,87.1,59.7,40,29.90,10.0,SSE,3.5,-,N/A,,Clear,150,2012-09-03 21:35:00
5:55 PM,86.4,59.7,40,29.90,10.0,South,3.5,-,N/A,,Clear,190,2012-09-03 21:55:00
6:14 PM,87.8,59.9,39,29.90,10.0,South,4.6,-,N/A,,Clear,170,2012-09-03 22:14:00
6:34 PM,86.7,60.1,41,29.90,10.0,Calm,Calm,-,N/A,,Clear,0,2012-09-03 22:34:00
6:55 PM,85.5,60.4,43,29.90,10.0,Calm,Calm,-,N/A,,Clear,0,2012-09-03 22:55:00
7:14 PM,84.6,61.7,46,29.90,10.0,Calm,Calm,-,N/A,,Clear,0,2012-09-03 23:14:00
7:35 PM,82.4,62.8,51,29.91,10.0,Calm,Calm,-,N/A,,Clear,0,2012-09-03 23:35:00
7:55 PM,80.2,64.2,58,29.91,10.0,Calm,Calm,-,N/A,,Scattered Clouds,0,2012-09-03 23:55:00
8:14 PM,78.4,65.1,63,29.91,10.0,Calm,Calm,-,N/A,,Scattered Clouds,0,2012-09-04 00:14:00
8:34 PM,77.0,65.5,67,29.92,10.0,Calm,Calm,-,N/A,,Clear,0,2012-09-04 00:34:00
8:40 PM,76.5,65.7,69,29.92,10.0,Calm,Calm,-,N/A,,Clear,0,2012-09-04 00:40:00
9:05 PM,75.2,64.4,69,29.92,10.0,Calm,Calm,-,N/A,,Clear,0,2012-09-04 01:05:00
9:17 PM,74.3,65.1,73,29.92,10.0,Calm,Calm,-,N/A,,Clear,0,2012-09-04 01:17:00
9:34 PM,72.9,64.6,75,29.93,10.0,Calm,Calm,-,N/A,,Scattered Clouds,0,2012-09-04 01:34:00
9:55 PM,73.2,64.8,75,29.93,10.0,WNW,10.4,-,N/A,,Scattered Clouds,290,2012-09-04 01:55:00
10:15 PM,74.3,64.4,71,29.93,10.0,Calm,Calm,-,N/A,,Clear,0,2012-09-04 02:15:00
10:35 PM,71.4,64.2,78,29.93,10.0,Calm,Calm,-,N/A,,Clear,0,2012-09-04 02:35:00
10:43 PM,70.2,64.0,81,29.92,10.0,Calm,Calm,-,N/A,,Clear,0,2012-09-04 02:43:00
11:08 PM,69.3,64.8,86,29.92,10.0,Calm,Calm,-,N/A,,Clear,0,2012-09-04 03:08:00
11:34 PM,68.9,64.8,87,29.92,10.0,Calm,Calm,-,N/A,,Clear,0,2012-09-04 03:34:00
11:55 PM,68.0,64.0,87,29.93,10.0,NW,3.5,-,N/A,,Clear,320,2012-09-04 03:55:00